カタログに戻る

STARLINK-6058

運用中通信VLEO
NORAD 56797·PAYLOAD·🇺🇸 United States

打ち上げ May 31, 2023 から Vandenberg Space Force Base

Loading…

次のパス (今後24時間)

TLE

最新Source: CelesTrak SupGP

元期: Sep 14, 2026, 14:34 UTC

1 56797C 23078AG  26257.60743056 -.00041230  00000+0 -34556-2 0  2570
2 56797  70.0012 228.2918 0003505 271.0383  98.7543 14.98346535    10

AllMySatでSTARLINK-6058をリアルタイム追跡

Download on the App Store